Location: Charlotte
(35.2270°N, 80.8430°W)
Time: 03:26:47
(UTC-04:00)

Daily predictions for brighter satellites

Satellite Brightness Start Highest point End
(mag) Time Altitude Azimuth Time Altitude Azimuth Time Altitude Azimuth
Cosmos 2219 Rocket 4.1 00:14:23 26° N 00:14:23 26° N 00:17:02 10° N
ATLAS 3B R/B 4.0 00:07:26 10° NW 00:11:07 29° WNW 00:11:07 29° WNW
Cosmos 2333 Rocket 4.3 00:32:48 23° N 00:32:48 23° N 00:35:10 10° N
Cosmos 2237 Rocket 4.4 00:57:08 20° N 00:57:08 20° N 00:59:05 10° N
CENTAUR R/B 3.8 00:58:43 10° NNW 01:04:37 49° N 01:04:37 49° N
SL-16 R/B 4.4 02:30:31 21° ENE 02:31:20 22° ENE 02:35:52 10° NNE
Cosmos 1943 Rocket 4.2 02:28:42 10° N 02:31:11 23° NNE 02:31:11 23° NNE
Resurs 1-4 Rocket 4.5 02:36:38 10° NE 02:38:22 16° ENE 02:38:22 16° ENE
Cosmos 2369 Rocket 4.3 02:39:58 10° NNW 02:41:42 20° NNW 02:41:42 20° NNW
CZ-3A R/B 4.4 02:38:15 10° NW 02:47:39 42° NNE 02:52:46 10° ESE
CZ-2D R/B 4.2 02:46:30 10° NE 02:48:56 21° ENE 02:48:56 21° ENE
ARIANE 5 R/B 4.3 03:09:03 10° NNE 03:12:11 28° ENE 03:12:11 28° ENE
ADEOS Rocket 4.0 03:18:37 10° N 03:21:45 35° N 03:21:45 35° N
COSMOS 2406 3.6 03:47:04 59° ENE 03:47:04 59° ENE 03:51:49 10° NNE
ADEOS 4.3 03:41:10 10° NNE 03:45:17 51° NE 03:45:17 51° NE
Cosmos 2285 Rocket 4.3 03:46:51 59° ESE 03:46:58 59° ESE 03:53:13 10° NNE
Cosmos 2098 Rocket 4.3 03:52:13 51° NNW 03:52:13 51° NNW 03:56:11 10° N
MOS 1 Rocket 4.4 04:04:44 10° N 04:07:19 35° N 04:07:19 35° N
Cosmos 1300 4.3 04:12:33 33° ENE 04:12:33 33° ENE 04:15:13 10° NNE
SL-16 R/B 2.9 04:15:37 48° WNW 04:15:37 48° WNW 04:20:34 10° NNW
Cosmos 1125 Rocket 4.5 04:11:06 10° NNW 04:14:14 36° NW 04:14:14 36° NW
Sich 1 3.7 04:13:35 10° N 04:17:46 52° ENE 04:17:46 52° ENE
Resurs 1-4 Rocket 2.9 04:15:30 10° N 04:19:26 38° NW 04:19:26 38° NW
Cosmos 2123 Rocket 4.1 04:15:08 10° NNW 04:20:53 57° WNW 04:20:53 57° WNW
CZ-2D R/B 4.3 04:18:26 10° NNE 04:21:16 45° NNE 04:21:16 45° NNE
Cosmos 1656 Rocket 4.1 04:19:45 10° NNW 04:24:03 48° WNW 04:24:03 48° WNW
Cosmos 1459 Rocket 4.4 04:25:34 28° SSE 04:28:47 57° E 04:34:42 10° NNE
Cosmos 1315 Rocket 3.4 04:25:04 10° N 04:28:33 56° NE 04:28:33 56° NE
CZ-2D R/B 3.1 04:26:09 10° N 04:30:15 33° NW 04:30:15 33° NW
Cosmos 1538 Rocket 4.1 04:30:40 56° SSE 04:31:42 72° ESE 04:37:04 10° NNE
Cosmos 2228 Rocket 3.9 04:31:13 38° SE 04:32:21 47° E 04:36:38 10° NNE
USA 229 DEB 3.7 04:31:15 10° NNW 04:38:29 82° WSW 04:45:49 10° SSE
Cosmos 2082 Rocket 3.9 04:34:30 13° SSE 04:38:34 28° ESE 04:43:16 10° NE
USA 229 3.7 04:31:21 10° NNW 04:38:35 83° WSW 04:45:55 10° SSE
Cosmos 1515 Rocket 4.4 04:37:53 31° SE 04:39:28 46° E 04:43:41 10° NNE
Tiangong 2 2.8 04:46:42 30° ESE 04:46:42 30° ESE 04:48:47 10° ENE
Cosmos 1633 Rocket 2.9 04:41:55 10° N 04:46:17 87° W 04:46:49 68° S
Cosmos 292 Rocket 4.2 04:46:25 45° WNW 04:46:25 45° WNW 04:50:55 10° N
Cosmos 2061 Rocket 4.2 04:43:46 22° S 04:48:04 75° E 04:54:30 10° N
ARIANE 5 R/B 3.8 04:48:31 10° NNW 04:52:31 25° WNW 04:52:31 25° WNW
CZ-4B R/B 3.9 04:53:55 10° NNE 04:58:17 51° E 05:01:30 18° S
CZ-4B R/B 4.5 04:54:26 10° NNE 04:59:30 38° E 05:04:26 10° SSE
UNKNOWN OBJECT B 4.2 04:57:17 10° NNW 05:00:00 26° NW 05:00:00 26° NW
Cosmos 1726 3.9 05:03:54 20° NW 05:03:54 20° NW 05:05:42 10° NNW
Cosmos 1328 Rocket 3.6 05:05:17 49° WSW 05:05:59 55° W 05:10:15 10° N
SL-27 R/B 4.2 05:08:12 20° NW 05:08:12 20° NW 05:09:58 10° NNW
Cosmos 2016 Rocket 3.9 05:02:55 15° S 05:08:09 85° E 05:14:16 10° N
Meteor 1-27 4.4 05:04:26 13° S 05:09:31 73° E 05:15:08 10° NNE
ADEOS II 2.0 05:06:00 10° NNE 05:11:16 85° WNW 05:14:51 21° SSW
Cosmos 1892 3.7 05:08:24 10° N 05:12:08 48° E 05:15:51 10° SSE
USA 234 4.1 05:06:35 10° ENE 05:12:44 42° SE 05:18:19 13° SSW
Hubble Space Telescope 1.8 05:12:56 28° S 05:13:23 29° S 05:16:58 10° ESE
NOSS 3-1 (C) 4.2 05:05:37 10° NNW 05:13:26 85° ENE 05:21:58 10° SSE
OAO 2 Rocket 4.4 05:11:56 25° SSW 05:13:43 32° SSE 05:18:08 10° E
MOS 1-B 4.3 05:09:02 10° N 05:14:49 69° WNW 05:18:38 22° SSW
Shenzhou-11 Module 1.9 05:14:51 66° WNW 05:15:08 73° NNW 05:18:13 10° ENE
In-Cosmos 22 Rocket 4.0 05:13:14 10° NNW 05:18:34 66° W 05:23:48 10° S
PSLV R/B 3.6 05:14:48 10° NNE 05:19:09 81° ESE 05:22:30 16° S
BREEZE-M DEB (TANK) 1.7 05:20:14 51° SSW 05:20:14 51° SSW 05:23:37 10° SE
Cosmos 1725 Rocket 4.1 05:14:38 10° S 05:20:48 75° E 05:26:58 10° N
Cosmos 1802 Rocket 4.0 05:17:49 19° SSW 05:22:13 61° W 05:28:25 10° N
Cosmos 2100 Rocket 4.4 05:21:04 23° SW 05:24:38 45° W 05:30:42 10° N
Cosmos 1933 Rocket 3.5 05:23:40 10° NNW 05:28:06 67° W 05:32:29 10° S
Cosmos 773 Rocket 4.5 05:26:23 26° WSW 05:28:53 42° WNW 05:33:55 10° N
COSMOS 2487 2.3 05:28:41 23° SSW 05:30:46 88° WNW 05:34:19 10° NNE
Abrixas 4.0 05:30:07 10° NW 05:32:30 30° NNE 05:34:53 10° E
Okean O Rocket 1.6 05:32:48 10° N 05:37:13 69° WNW 05:41:18 12° SSW
Cosmos 1833 Rocket 2.7 05:32:20 13° SSW 05:37:28 86° WNW 05:43:09 10° NNE
Cosmos 1151 Rocket 3.5 05:38:21 20° SW 05:40:51 39° W 05:44:52 10° N
Tsikada Rocket 4.1 05:39:09 10° N 05:45:30 88° E 05:51:53 10° S
Cosmos 1980 Rocket 4.1 05:49:50 10° N 05:54:53 34° ENE 05:59:56 10° SE
Cosmos 2278 3.7 05:52:58 10° NNW 05:58:35 66° WSW 06:04:09 10° S
EO 1 Del DPAF 4.1 05:56:49 10° SSE 06:00:33 54° ENE 06:04:19 10° N
Cosmos 482 Debris 4.5 06:00:04 10° NW 06:02:54 65° NE 06:07:40 10° SE
Cosmos 1455 3.0 06:00:29 10° SW 06:03:51 31° W 06:07:15 10° NNW
Cosmos 1697 Rocket 2.9 06:05:12 10° NNW 06:10:54 82° ENE 06:16:34 10° SSE
Timation 2 Rocket 3.9 06:10:34 10° SSW 06:16:32 90° WNW 06:22:39 10° NNE
PSLV R/B 3.9 06:17:01 10° WNW 06:20:11 52° NNE 06:23:24 10° E
SJ-6F 4.5 06:16:03 10° N 06:20:12 68° WNW 06:24:22 10° SSW
Cosmos 1869 3.5 06:16:40 10° SSW 06:20:30 48° W 06:24:22 10° N
Cosmos 2082 Rocket 3.0 06:17:25 10° SW 06:22:27 34° WNW 06:27:33 10° N
